Location: ????
(32.1228°N, 34.8377°E)
Time: 00:21:03
(UTC+00:00)

Cosmos 2333 Rocket - Pass Details

Date: 21 September 2020
Orbit: 839 x 863 km, 70.8° (Epoch: 21 October)

Event Time Altitude Azimuth Distance (km) Brightness Sun altitude
Rises 02:51:38 0° 196° (SSW) 3,419 5.1 -8.6°
Reaches altitude 10° 02:54:04 10° 196° (SSW) 2,488 4.4 -8.1°
Maximum altitude 02:59:48 83° 110° (ESE) 872 2.4 -6.9°
Drops below altitude 10° 03:05:34 10° 22° (NNE) 2,503 5.0 -5.7°
Sets 03:08:02 0° 22° (NNE) 3,442 5.7 -5.1°
